Terminal Aerodrome Forecast
Issued by NWS

Home | Current Version | Previous Version | Text Only | Print | Product List | Glossary On
Versions: 1 2 3 4 5 6 7 8 9 10 11 12 13 14 15 16 17 18 19 20 21 22 23 24 25 26 27 28 29 30 31
000
FTUS41 KBUF 280500
TAFJHW
TAF
KJHW 280528Z 2806/2906 32009KT P6SM SCT021
      TEMPO 2806/2808 BKN025
     FM280800 34004KT P6SM BKN020
     FM280900 34004KT P6SM BKN007
     FM281300 33004KT P6SM BKN012
     FM281700 33008KT P6SM SCT025
     FM282200 33007KT P6SM SCT250
      AMD LTD TO CLD VIS AND WIND=

USA.gov is the U.S. government's official web portal to all federal, state and local government web resources and services.